Location: Avenches
(46.8809°N, 7.0410°E)
Time: 13:51:56
(UTC+00:00)

Resurs 01 Rocket - Pass Details

Date: 30 March 2020
Orbit: 635 x 644 km, 98.0° (Epoch: 03 June)

Event Time Altitude Azimuth Distance (km) Brightness Sun altitude
Exits shadow 20:16:31 39° 197° (SSW) 956 2.3 -22.7°
Maximum altitude 20:17:57 61° 259° (WSW) 724 2.0 -22.9°
Drops below altitude 10° 20:22:21 10° 340° (NNW) 2,033 4.9 -23.5°
Sets 20:24:35 0° 344° (NNW) 2,947 5.8 -23.8°
